星链-30116 (STARLINK-30116 )

导读

STARLINK-30116是美国太空探索技术公司SpaceX星链卫星互联网项目中的一颗卫星,于2023年7月28日发射升空。星链计划旨在构建覆盖全球的低轨卫星互联网星座,该卫星入轨后,为全球偏远地区、海洋空域等场景提供低延迟、宽带互联网接入服务,助力全球网络覆盖建设。

基本信息
目录编号:
57465
目录名称:
STARLINK-30116
国际标识:
2023-107J
轨道中心:
EARTH
卫星名称:
星链-30116
卫星全名:
星链-30116 (STARLINK-30116 )
卫星状态:
在轨 (已飞行1134 天)
发射日期:
2023-07-28 UTC
国别 :
美国 (US)
星等 :
--
轨道信息
数据来源 国际轨道数据 AOE轨道数据
星历时间 2026-09-04T04:30:49+0800
17小时前
查看轨道信息
2026-08-31T11:00:00+0800
4天前
查看轨道信息
半长轴 6861.196km 6861.206km
偏心率 0.000182 0.0001545
轨道倾角 43.005° 43.004°
近地点辐角 269.368° 279.274°
升交点赤经 50.051° 71.113°
平近点角 90.696° 65.916°
近地点 481.81km 482.008km
远地点 484.308km 484.13km
周期 94.267分钟 94.267分钟
每日圈数 15.275769 15.275736
详细信息
固有亮度:
5
最大亮度:
0.3
卫星平台:
Starlink v2.0 mini
覆盖范围:
全球
运营商:
太空探索技术公司
运营商所在国:
美国
制造商(研发单位):
太空探索技术公司
制造商所在国:
美国
使用方式:
暂无
卫星简介
星链(Starlink)计划是由太空探索技术公司(SpaceX)提出的一个巨型低轨卫星互联网星座项目,计划在2019年至2024年间在太空搭建由约1.2万颗卫星组成的“星链”网络,其中1584颗将部署在地球上空550千米处的近地轨道,并从2020年开始工作。该卫星仍在工作。
2D轨道图
3D轨道图
轨道高度分析图
轨道倾角分析图
轨道综合分析图
查看轨道综合分析图
交会数据列表
事件ID 空间交会对象 最接近时刻(TCA) 交会距离 交会风险概率(CRP) 交会风险指数(CRI) 操作
CDM_260906-070505-746506-377521
2026-09-06T
07:05:53+0000
1.101 km
极远距离
1.0812E-5 中风险 0.56
CDM_260903-182303-517405-746522
2026-09-03T
18:23:53+0000
1.352 km
极远距离
9.0428E-6 低风险 0.54
CDM_260906-053105-746506-377521
2026-09-06T
05:31:44+0000
2.831 km
极远距离
8.979671E-7 极低风险 0.34
CDM_260906-084005-746506-377521
2026-09-06T
08:40:03+0000
2.947 km
极远距离
8.553937E-7 极低风险 0.34